Location: Bay Shore Mobile Home Park
(38.5762°N, 75.0841°W)
Time: 09:44:25
(UTC+00:00)

CZ-4C R/B - Pass Details

Date: 15 November 2025
Orbit: 487 x 1492 km, 63.4° (Epoch: 05 December)

Event Time Altitude Azimuth Distance (km) Brightness Sun altitude
Rises 22:26:30 0° 277° (W) 2,836 6.3 -8.1°
Reaches altitude 10° 22:30:18 10° 313° (NW) 2,129 4.7 -8.8°
Maximum altitude 22:31:52 11° 332° (NNW) 2,123 4.4 -9.1°
Drops below altitude 10° 22:33:31 10° 351° (N) 2,313 4.4 -9.4°
Sets 22:38:17 0° 24° (NNE) 3,539 5.1 -10.3°
